Year,Month,Day,Hour,Minute,Value (Times are PST for temperature in C)
2014,04,09,00,00,8.70
2014,04,09,00,01,8.70
2014,04,09,00,02,8.70
2014,04,09,00,03,8.70
2014,04,09,00,04,8.70
2014,04,09,00,05,8.70
2014,04,09,00,06,8.70
2014,04,09,00,07,8.60
2014,04,09,00,08,8.60
2014,04,09,00,09,8.60
2014,04,09,00,10,8.60
2014,04,09,00,11,8.60
2014,04,09,00,12,8.60
2014,04,09,00,13,8.60
2014,04,09,00,14,8.60
2014,04,09,00,15,8.60
2014,04,09,00,16,8.60
2014,04,09,00,17,8.50
2014,04,09,00,18,8.50
2014,04,09,00,19,8.50
2014,04,09,00,20,8.50
2014,04,09,00,21,8.50
2014,04,09,00,22,8.50
2014,04,09,00,23,8.50
2014,04,09,00,24,8.50
2014,04,09,00,25,8.50
2014,04,09,00,26,8.50
2014,04,09,00,27,8.50
2014,04,09,00,28,8.50
2014,04,09,00,29,8.50
2014,04,09,00,30,8.50
2014,04,09,00,31,8.50
2014,04,09,00,32,8.40
2014,04,09,00,33,8.40
2014,04,09,00,34,8.40
2014,04,09,00,35,8.40
2014,04,09,00,36,8.40
2014,04,09,00,37,8.40
2014,04,09,00,38,8.40
2014,04,09,00,39,8.30
2014,04,09,00,40,8.30
2014,04,09,00,41,8.30
2014,04,09,00,42,8.30
2014,04,09,00,43,8.20
2014,04,09,00,44,8.20
2014,04,09,00,45,8.20
2014,04,09,00,46,8.20
2014,04,09,00,47,8.20
2014,04,09,00,48,8.10
2014,04,09,00,49,8.10
2014,04,09,00,50,8.10
2014,04,09,00,51,8.00
2014,04,09,00,52,8.00
2014,04,09,00,53,8.00
2014,04,09,00,54,7.90
2014,04,09,00,55,7.90
2014,04,09,00,56,7.90
2014,04,09,00,57,7.90
2014,04,09,00,58,7.90
2014,04,09,00,59,7.90
2014,04,09,01,00,7.90
2014,04,09,01,01,7.90
2014,04,09,01,02,7.90
2014,04,09,01,03,7.80
2014,04,09,01,04,7.80
2014,04,09,01,05,7.80
2014,04,09,01,06,7.80
2014,04,09,01,07,7.80
2014,04,09,01,08,7.80
2014,04,09,01,09,7.80
2014,04,09,01,10,7.80
2014,04,09,01,11,7.80
2014,04,09,01,12,7.80
2014,04,09,01,13,7.80
2014,04,09,01,14,7.80
2014,04,09,01,15,7.80
2014,04,09,01,16,7.70
2014,04,09,01,17,7.70
2014,04,09,01,18,7.70
2014,04,09,01,19,7.70
2014,04,09,01,20,7.70
2014,04,09,01,21,7.70
2014,04,09,01,22,7.70
2014,04,09,01,23,7.70
2014,04,09,01,24,7.70
2014,04,09,01,25,7.70
2014,04,09,01,26,7.70
2014,04,09,01,27,7.70
2014,04,09,01,28,7.70
2014,04,09,01,29,7.70
2014,04,09,01,30,7.70
2014,04,09,01,31,7.70
2014,04,09,01,32,7.70
2014,04,09,01,33,7.70
2014,04,09,01,34,7.60
2014,04,09,01,35,7.60
2014,04,09,01,36,7.60
2014,04,09,01,37,7.60
2014,04,09,01,38,7.50
2014,04,09,01,39,7.50
2014,04,09,01,40,7.50
2014,04,09,01,41,7.50
2014,04,09,01,42,7.40
2014,04,09,01,43,7.40
2014,04,09,01,44,7.40
2014,04,09,01,45,7.40
2014,04,09,01,46,7.30
2014,04,09,01,47,7.30
2014,04,09,01,48,7.30
2014,04,09,01,49,7.30
2014,04,09,01,50,7.30
2014,04,09,01,51,7.30
2014,04,09,01,52,7.30
2014,04,09,01,53,7.30
2014,04,09,01,54,7.30
2014,04,09,01,55,7.30
2014,04,09,01,56,7.30
2014,04,09,01,57,7.30
2014,04,09,01,58,7.20
2014,04,09,01,59,7.20
2014,04,09,02,00,7.20
2014,04,09,02,01,7.20
2014,04,09,02,02,7.20
2014,04,09,02,03,7.20
2014,04,09,02,04,7.20
2014,04,09,02,05,7.20
2014,04,09,02,06,7.20
2014,04,09,02,07,7.10
2014,04,09,02,08,7.10
2014,04,09,02,09,7.10
2014,04,09,02,10,7.10
2014,04,09,02,11,7.10
2014,04,09,02,12,7.10
2014,04,09,02,13,7.10
2014,04,09,02,14,7.10
2014,04,09,02,15,7.10
2014,04,09,02,16,7.10
2014,04,09,02,17,7.10
2014,04,09,02,18,7.10
2014,04,09,02,19,7.00
2014,04,09,02,20,7.00
2014,04,09,02,21,7.00
2014,04,09,02,22,6.90
2014,04,09,02,23,6.90
2014,04,09,02,24,6.90
2014,04,09,02,25,6.90
2014,04,09,02,26,6.90
2014,04,09,02,27,6.90
2014,04,09,02,28,6.90
2014,04,09,02,29,7.00
2014,04,09,02,30,7.00
2014,04,09,02,31,7.00
2014,04,09,02,32,7.00
2014,04,09,02,33,7.00
2014,04,09,02,34,7.00
2014,04,09,02,35,6.90
2014,04,09,02,36,6.90
2014,04,09,02,37,6.90
2014,04,09,02,38,6.90
2014,04,09,02,39,6.90
2014,04,09,02,40,6.80
2014,04,09,02,41,6.80
2014,04,09,02,42,6.80
2014,04,09,02,43,6.80
2014,04,09,02,44,6.80
2014,04,09,02,45,6.80
2014,04,09,02,46,6.80
2014,04,09,02,47,6.80
2014,04,09,02,48,6.80
2014,04,09,02,49,6.80
2014,04,09,02,50,6.80
2014,04,09,02,51,6.80
2014,04,09,02,52,6.70
2014,04,09,02,53,6.70
2014,04,09,02,54,6.70
2014,04,09,02,55,6.70
2014,04,09,02,56,6.70
2014,04,09,02,57,6.60
2014,04,09,02,58,6.60
2014,04,09,02,59,6.50
2014,04,09,03,00,6.50
2014,04,09,03,01,6.40
2014,04,09,03,02,6.40
2014,04,09,03,03,6.30
2014,04,09,03,04,6.20
2014,04,09,03,05,6.10
2014,04,09,03,06,6.10
2014,04,09,03,07,6.00
2014,04,09,03,08,6.00
2014,04,09,03,09,5.90
2014,04,09,03,10,5.90
2014,04,09,03,11,5.90
2014,04,09,03,12,5.90
2014,04,09,03,13,5.90
2014,04,09,03,14,5.80
2014,04,09,03,15,5.80
2014,04,09,03,16,5.70
2014,04,09,03,17,5.70
2014,04,09,03,18,5.70
2014,04,09,03,19,5.70
2014,04,09,03,20,5.70
2014,04,09,03,21,5.70
2014,04,09,03,22,5.60
2014,04,09,03,23,5.60
2014,04,09,03,24,5.50
2014,04,09,03,25,5.40
2014,04,09,03,26,5.30
2014,04,09,03,27,5.30
2014,04,09,03,28,5.20
2014,04,09,03,29,5.10
2014,04,09,03,30,5.00
2014,04,09,03,31,5.00
2014,04,09,03,32,4.90
2014,04,09,03,33,4.90
2014,04,09,03,34,4.90
2014,04,09,03,35,4.90
2014,04,09,03,36,4.90
2014,04,09,03,37,4.90
2014,04,09,03,38,4.80
2014,04,09,03,39,4.80
2014,04,09,03,40,4.70
2014,04,09,03,41,4.70
2014,04,09,03,42,4.70
2014,04,09,03,43,4.70
2014,04,09,03,44,4.70
2014,04,09,03,45,4.70
2014,04,09,03,46,4.60
2014,04,09,03,47,4.60
2014,04,09,03,48,4.50
2014,04,09,03,49,4.40
2014,04,09,03,50,4.40
2014,04,09,03,51,4.30
2014,04,09,03,52,4.30
2014,04,09,03,53,4.20
2014,04,09,03,54,4.20
2014,04,09,03,55,4.10
2014,04,09,03,56,4.10
2014,04,09,03,57,4.20
2014,04,09,03,58,4.20
2014,04,09,03,59,4.20
2014,04,09,04,00,4.20
2014,04,09,04,01,4.20
2014,04,09,04,02,4.20
2014,04,09,04,03,4.10
2014,04,09,04,04,4.10
2014,04,09,04,05,4.10
2014,04,09,04,06,4.00
2014,04,09,04,07,4.00
2014,04,09,04,08,4.00
2014,04,09,04,09,4.00
2014,04,09,04,10,3.90
2014,04,09,04,11,3.90
2014,04,09,04,12,3.90
2014,04,09,04,13,3.80
2014,04,09,04,14,3.80
2014,04,09,04,15,3.80
2014,04,09,04,16,3.80
2014,04,09,04,17,3.80
2014,04,09,04,18,3.80
2014,04,09,04,19,3.80
2014,04,09,04,20,3.80
2014,04,09,04,21,3.70
2014,04,09,04,22,3.70
2014,04,09,04,23,3.80
2014,04,09,04,24,3.80
2014,04,09,04,25,3.70
2014,04,09,04,26,3.70
2014,04,09,04,27,3.70
2014,04,09,04,28,3.70
2014,04,09,04,29,3.60
2014,04,09,04,30,3.60
2014,04,09,04,31,3.70
2014,04,09,04,32,3.70
2014,04,09,04,33,3.60
2014,04,09,04,34,3.60
2014,04,09,04,35,3.60
2014,04,09,04,36,3.60
2014,04,09,04,37,3.60
2014,04,09,04,38,3.60
2014,04,09,04,39,3.70
2014,04,09,04,40,3.70
2014,04,09,04,41,3.70
2014,04,09,04,42,3.70
2014,04,09,04,43,3.80
2014,04,09,04,44,3.80
2014,04,09,04,45,3.90
2014,04,09,04,46,3.90
2014,04,09,04,47,3.90
2014,04,09,04,48,4.00
2014,04,09,04,49,4.00
2014,04,09,04,50,4.00
2014,04,09,04,51,4.00
2014,04,09,04,52,4.10
2014,04,09,04,53,4.10
2014,04,09,04,54,4.20
2014,04,09,04,55,4.20
2014,04,09,04,56,4.20
2014,04,09,04,57,4.30
2014,04,09,04,58,4.30
2014,04,09,04,59,4.30
2014,04,09,05,00,4.30
2014,04,09,05,01,4.30
2014,04,09,05,02,4.30
2014,04,09,05,03,4.30
2014,04,09,05,04,4.30
2014,04,09,05,05,4.30
2014,04,09,05,06,4.30
2014,04,09,05,07,4.30
2014,04,09,05,08,4.30
2014,04,09,05,09,4.30
2014,04,09,05,10,4.30
2014,04,09,05,11,4.30
2014,04,09,05,12,4.30
2014,04,09,05,13,4.20
2014,04,09,05,14,4.20
2014,04,09,05,15,4.20
2014,04,09,05,16,4.20
2014,04,09,05,17,4.20
2014,04,09,05,18,4.20
2014,04,09,05,19,4.20
2014,04,09,05,20,4.20
2014,04,09,05,21,4.20
2014,04,09,05,22,4.20
2014,04,09,05,23,4.20
2014,04,09,05,24,4.20
2014,04,09,05,25,4.20
2014,04,09,05,26,4.20
2014,04,09,05,27,4.20
2014,04,09,05,28,4.20
2014,04,09,05,29,4.10
2014,04,09,05,30,4.10
2014,04,09,05,31,4.10
2014,04,09,05,32,4.00
2014,04,09,05,33,3.90
2014,04,09,05,34,3.90
2014,04,09,05,35,3.80
2014,04,09,05,36,3.80
2014,04,09,05,37,3.80
2014,04,09,05,38,3.80
2014,04,09,05,39,3.70
2014,04,09,05,40,3.70
2014,04,09,05,41,3.70
2014,04,09,05,42,3.70
2014,04,09,05,43,3.80
2014,04,09,05,44,3.80
2014,04,09,05,45,3.80
2014,04,09,05,46,3.80
2014,04,09,05,47,3.80
2014,04,09,05,48,3.80
2014,04,09,05,49,3.70
2014,04,09,05,50,3.70
2014,04,09,05,51,3.70
2014,04,09,05,52,3.60
2014,04,09,05,53,3.60
2014,04,09,05,54,3.60
2014,04,09,05,55,3.50
2014,04,09,05,56,3.60
2014,04,09,05,57,3.60
2014,04,09,05,58,3.60
2014,04,09,05,59,3.50
2014,04,09,06,00,3.50
2014,04,09,06,01,3.50
2014,04,09,06,02,3.50
2014,04,09,06,03,3.50
2014,04,09,06,04,3.50
2014,04,09,06,05,3.50
2014,04,09,06,06,3.50
2014,04,09,06,07,3.50
2014,04,09,06,08,3.40
2014,04,09,06,09,3.40
2014,04,09,06,10,3.40
2014,04,09,06,11,3.40
2014,04,09,06,12,3.40
2014,04,09,06,13,3.40
2014,04,09,06,14,3.40
2014,04,09,06,15,3.40
2014,04,09,06,16,3.40
2014,04,09,06,17,3.50
2014,04,09,06,18,3.60
2014,04,09,06,19,3.60
2014,04,09,06,20,3.70
2014,04,09,06,21,3.70
2014,04,09,06,22,3.70
2014,04,09,06,23,3.80
2014,04,09,06,24,3.80
2014,04,09,06,25,3.90
2014,04,09,06,26,3.90
2014,04,09,06,27,3.90
2014,04,09,06,28,3.90
2014,04,09,06,29,4.00
2014,04,09,06,30,4.00
2014,04,09,06,31,4.00
2014,04,09,06,32,4.10
2014,04,09,06,33,4.10
2014,04,09,06,34,4.20
2014,04,09,06,35,4.20
2014,04,09,06,36,4.20
2014,04,09,06,37,4.20
2014,04,09,06,38,4.20
2014,04,09,06,39,4.20
2014,04,09,06,40,4.20
2014,04,09,06,41,4.20
2014,04,09,06,42,4.20
2014,04,09,06,43,4.20
2014,04,09,06,44,4.30
2014,04,09,06,45,4.30
2014,04,09,06,46,4.30
2014,04,09,06,47,4.30
2014,04,09,06,48,4.30
2014,04,09,06,49,4.30
2014,04,09,06,50,4.40
2014,04,09,06,51,4.40
2014,04,09,06,52,4.40
2014,04,09,06,53,4.40
2014,04,09,06,54,4.40
2014,04,09,06,55,4.50
2014,04,09,06,56,4.50
2014,04,09,06,57,4.50
2014,04,09,06,58,4.60
2014,04,09,06,59,4.60
2014,04,09,07,00,4.60
2014,04,09,07,01,4.60
2014,04,09,07,02,4.70
2014,04,09,07,03,4.70
2014,04,09,07,04,4.70
2014,04,09,07,05,4.70
2014,04,09,07,06,4.70
2014,04,09,07,07,4.80
2014,04,09,07,08,4.80
2014,04,09,07,09,4.80
2014,04,09,07,10,4.80
2014,04,09,07,11,4.80
2014,04,09,07,12,4.90
2014,04,09,07,13,4.90
2014,04,09,07,14,4.90
2014,04,09,07,15,4.90
2014,04,09,07,16,4.90
2014,04,09,07,17,4.90
2014,04,09,07,18,4.90
2014,04,09,07,19,4.90
2014,04,09,07,20,4.90
2014,04,09,07,21,4.90
2014,04,09,07,22,4.90
2014,04,09,07,23,4.80
2014,04,09,07,24,4.80
2014,04,09,07,25,4.80
2014,04,09,07,26,4.80
2014,04,09,07,27,4.90
2014,04,09,07,28,4.90
2014,04,09,07,29,4.90
2014,04,09,07,30,4.90
2014,04,09,07,31,4.90
2014,04,09,07,32,4.90
2014,04,09,07,33,4.80
2014,04,09,07,34,4.80
2014,04,09,07,35,4.90
2014,04,09,07,36,4.90
2014,04,09,07,37,4.90
2014,04,09,07,38,4.90
2014,04,09,07,39,5.00
2014,04,09,07,40,5.00
2014,04,09,07,41,5.10
2014,04,09,07,42,5.10
2014,04,09,07,43,5.10
2014,04,09,07,44,5.20
2014,04,09,07,45,5.20
2014,04,09,07,46,5.20
2014,04,09,07,47,5.30
2014,04,09,07,48,5.30
2014,04,09,07,49,5.30
2014,04,09,07,50,5.30
2014,04,09,07,51,5.30
2014,04,09,07,52,5.30
2014,04,09,07,53,5.40
2014,04,09,07,54,5.40
2014,04,09,07,55,5.50
2014,04,09,07,56,5.50
2014,04,09,07,57,5.50
2014,04,09,07,58,5.60
2014,04,09,07,59,5.60
2014,04,09,08,00,5.70
2014,04,09,08,01,5.70
2014,04,09,08,02,5.70
2014,04,09,08,03,5.80
2014,04,09,08,04,5.80
2014,04,09,08,05,5.80
2014,04,09,08,06,5.80
2014,04,09,08,07,5.80
2014,04,09,08,08,5.80
2014,04,09,08,09,5.80
2014,04,09,08,10,5.80
2014,04,09,08,11,5.80
2014,04,09,08,12,5.80
2014,04,09,08,13,5.90
2014,04,09,08,14,5.90
2014,04,09,08,15,5.90
2014,04,09,08,16,6.00
2014,04,09,08,17,6.00
2014,04,09,08,18,6.10
2014,04,09,08,19,6.10
2014,04,09,08,20,6.10
2014,04,09,08,21,6.20
2014,04,09,08,22,6.20
2014,04,09,08,23,6.20
2014,04,09,08,24,6.20
2014,04,09,08,25,6.20
2014,04,09,08,26,6.30
2014,04,09,08,27,6.30
2014,04,09,08,28,6.40
2014,04,09,08,29,6.40
2014,04,09,08,30,6.50
2014,04,09,08,31,6.50
2014,04,09,08,32,6.60
2014,04,09,08,33,6.60
2014,04,09,08,34,6.60
2014,04,09,08,35,6.70
2014,04,09,08,36,6.70
2014,04,09,08,37,6.70
2014,04,09,08,38,6.80
2014,04,09,08,39,6.80
2014,04,09,08,40,6.90
2014,04,09,08,41,6.90
2014,04,09,08,42,7.00
2014,04,09,08,43,7.00
2014,04,09,08,44,7.10
2014,04,09,08,45,7.10
2014,04,09,08,46,7.20
2014,04,09,08,47,7.20
2014,04,09,08,48,7.30
2014,04,09,08,49,7.30
2014,04,09,08,50,7.40
2014,04,09,08,51,7.40
2014,04,09,08,52,7.50
2014,04,09,08,53,7.50
2014,04,09,08,54,7.60
2014,04,09,08,55,7.60
2014,04,09,08,56,7.70
2014,04,09,08,57,7.70
2014,04,09,08,58,7.80
2014,04,09,08,59,7.80
2014,04,09,09,00,7.90
2014,04,09,09,01,7.90
2014,04,09,09,02,8.00
2014,04,09,09,03,8.00
2014,04,09,09,04,8.10
2014,04,09,09,05,8.10
2014,04,09,09,06,8.20
2014,04,09,09,07,8.20
2014,04,09,09,08,8.20
2014,04,09,09,09,8.20
2014,04,09,09,10,8.20
2014,04,09,09,11,8.20
2014,04,09,09,12,8.30
2014,04,09,09,13,8.30
2014,04,09,09,14,8.30
2014,04,09,09,15,8.30
2014,04,09,09,16,8.40
2014,04,09,09,17,8.50
2014,04,09,09,18,8.50
2014,04,09,09,19,8.60
2014,04,09,09,20,8.70
2014,04,09,09,21,8.70
2014,04,09,09,22,8.70
2014,04,09,09,23,8.70
2014,04,09,09,24,8.70
2014,04,09,09,25,8.70
2014,04,09,09,26,8.80
2014,04,09,09,27,8.80
2014,04,09,09,28,8.80
2014,04,09,09,29,8.70
2014,04,09,09,30,8.80
2014,04,09,09,31,8.80
2014,04,09,09,32,8.80
2014,04,09,09,33,8.90
2014,04,09,09,34,8.90
2014,04,09,09,35,9.00
2014,04,09,09,36,9.10
2014,04,09,09,37,9.10
2014,04,09,09,38,9.20
2014,04,09,09,39,9.20
2014,04,09,09,40,9.20
2014,04,09,09,41,9.20
2014,04,09,09,42,9.20
2014,04,09,09,43,9.20
2014,04,09,09,44,9.20
2014,04,09,09,45,9.20
2014,04,09,09,46,9.20
2014,04,09,09,47,9.20
2014,04,09,09,48,9.20
2014,04,09,09,49,9.20
2014,04,09,09,50,9.20
2014,04,09,09,51,9.20
2014,04,09,09,52,9.20
2014,04,09,09,53,9.10
2014,04,09,09,54,9.00
2014,04,09,09,55,8.90
2014,04,09,09,56,8.80
2014,04,09,09,57,8.80
2014,04,09,09,58,8.80
2014,04,09,09,59,8.80
2014,04,09,10,00,8.80
2014,04,09,10,01,8.80
2014,04,09,10,02,8.80
2014,04,09,10,03,8.80
2014,04,09,10,04,8.80
2014,04,09,10,05,8.70
2014,04,09,10,06,8.70
2014,04,09,10,07,8.60
2014,04,09,10,08,8.60
2014,04,09,10,09,8.60
2014,04,09,10,10,8.60
2014,04,09,10,11,8.50
2014,04,09,10,12,8.50
2014,04,09,10,13,8.60
2014,04,09,10,14,8.60
2014,04,09,10,15,8.70
2014,04,09,10,16,8.70
2014,04,09,10,17,8.80
2014,04,09,10,18,8.90
2014,04,09,10,19,9.00
2014,04,09,10,20,9.10
2014,04,09,10,21,9.00
2014,04,09,10,22,9.00
2014,04,09,10,23,8.90
2014,04,09,10,24,8.90
2014,04,09,10,25,8.90
2014,04,09,10,26,9.00
2014,04,09,10,27,9.00
2014,04,09,10,28,8.90
2014,04,09,10,29,8.80
2014,04,09,10,30,8.80
2014,04,09,10,31,8.80
2014,04,09,10,32,8.90
2014,04,09,10,33,9.00
2014,04,09,10,34,9.10
2014,04,09,10,35,9.20
2014,04,09,10,36,9.20
2014,04,09,10,37,9.20
2014,04,09,10,38,9.10
2014,04,09,10,39,9.00
2014,04,09,10,40,9.00
2014,04,09,10,41,8.90
2014,04,09,10,42,8.90
2014,04,09,10,43,8.80
2014,04,09,10,44,8.80
2014,04,09,10,45,8.80
2014,04,09,10,46,8.90
2014,04,09,10,47,8.90
2014,04,09,10,48,8.90
2014,04,09,10,49,8.90
2014,04,09,10,50,8.80
2014,04,09,10,51,8.80
2014,04,09,10,52,8.80
2014,04,09,10,53,8.80
2014,04,09,10,54,8.80
2014,04,09,10,55,8.70
2014,04,09,10,56,8.70
2014,04,09,10,57,8.70
2014,04,09,10,58,8.70
2014,04,09,10,59,8.70
2014,04,09,11,00,8.70
2014,04,09,11,01,8.70
2014,04,09,11,02,8.80
2014,04,09,11,03,8.90
2014,04,09,11,04,9.00
2014,04,09,11,05,9.00
2014,04,09,11,06,9.00
2014,04,09,11,07,9.00
2014,04,09,11,08,9.00
2014,04,09,11,09,8.90
2014,04,09,11,10,8.90
2014,04,09,11,11,8.90
2014,04,09,11,12,8.90
2014,04,09,11,13,8.90
2014,04,09,11,14,8.80
2014,04,09,11,15,8.80
2014,04,09,11,16,8.80
2014,04,09,11,17,8.80
2014,04,09,11,18,8.80
2014,04,09,11,19,8.80
2014,04,09,11,20,8.80
2014,04,09,11,21,8.80
2014,04,09,11,22,8.70
2014,04,09,11,23,8.70
2014,04,09,11,24,8.70
2014,04,09,11,25,8.60
2014,04,09,11,26,8.70
2014,04,09,11,27,8.70
2014,04,09,11,28,8.80
2014,04,09,11,29,8.80
2014,04,09,11,30,8.90
2014,04,09,11,31,9.00
2014,04,09,11,32,9.00
2014,04,09,11,33,8.90
2014,04,09,11,34,8.90
2014,04,09,11,35,8.90
2014,04,09,11,36,8.90
2014,04,09,11,37,8.80
2014,04,09,11,38,8.80
2014,04,09,11,39,8.80
2014,04,09,11,40,8.80
2014,04,09,11,41,8.70
2014,04,09,11,42,8.70
2014,04,09,11,43,8.70
2014,04,09,11,44,8.70
2014,04,09,11,45,8.70
2014,04,09,11,46,8.70
2014,04,09,11,47,8.70
2014,04,09,11,48,8.70
2014,04,09,11,49,8.70
2014,04,09,11,50,8.70
2014,04,09,11,51,8.70
2014,04,09,11,52,8.70
2014,04,09,11,53,8.70
2014,04,09,11,54,8.70
2014,04,09,11,55,8.80
2014,04,09,11,56,8.90
2014,04,09,11,57,8.90
2014,04,09,11,58,8.90
2014,04,09,11,59,8.90
2014,04,09,12,00,8.80
2014,04,09,12,01,8.80
2014,04,09,12,02,8.80
2014,04,09,12,03,8.80
2014,04,09,12,04,8.80
2014,04,09,12,05,8.90
2014,04,09,12,06,9.00
2014,04,09,12,07,9.10
2014,04,09,12,08,9.10
2014,04,09,12,09,9.00
2014,04,09,12,10,8.90
2014,04,09,12,11,8.80
2014,04,09,12,12,8.80
2014,04,09,12,13,8.80
2014,04,09,12,14,8.80
2014,04,09,12,15,8.80
2014,04,09,12,16,8.70
2014,04,09,12,17,8.70
2014,04,09,12,18,8.70
2014,04,09,12,19,8.70
2014,04,09,12,20,8.70
2014,04,09,12,21,8.70
2014,04,09,12,22,8.80
2014,04,09,12,23,8.90
2014,04,09,12,24,8.90
2014,04,09,12,25,9.00
2014,04,09,12,26,9.00
2014,04,09,12,27,9.10
2014,04,09,12,28,9.20
2014,04,09,12,29,9.20
2014,04,09,12,30,9.30
2014,04,09,12,31,9.30
2014,04,09,12,32,9.40
2014,04,09,12,33,9.40
2014,04,09,12,34,9.30
2014,04,09,12,35,9.20
2014,04,09,12,36,9.20
2014,04,09,12,37,9.20
2014,04,09,12,38,9.20
2014,04,09,12,39,9.10
2014,04,09,12,40,9.10
2014,04,09,12,41,9.10
2014,04,09,12,42,9.10
2014,04,09,12,43,9.00
2014,04,09,12,44,9.00
2014,04,09,12,45,9.00
2014,04,09,12,46,8.90
2014,04,09,12,47,8.90
2014,04,09,12,48,8.90
2014,04,09,12,49,8.90
2014,04,09,12,50,8.90
2014,04,09,12,51,8.90
2014,04,09,12,52,9.00
2014,04,09,12,53,9.00
2014,04,09,12,54,9.00
2014,04,09,12,55,9.10
2014,04,09,12,56,9.20
2014,04,09,12,57,9.30
2014,04,09,12,58,9.30
2014,04,09,12,59,9.30
2014,04,09,13,00,9.30
2014,04,09,13,01,9.40
2014,04,09,13,02,9.30
2014,04,09,13,03,9.30
2014,04,09,13,04,9.30
2014,04,09,13,05,9.40
2014,04,09,13,06,9.30
2014,04,09,13,07,9.30
2014,04,09,13,08,9.30
2014,04,09,13,09,9.20
2014,04,09,13,10,9.20
2014,04,09,13,11,9.20
2014,04,09,13,12,9.20
2014,04,09,13,13,9.20
2014,04,09,13,14,9.20
2014,04,09,13,15,9.20
2014,04,09,13,16,9.30
2014,04,09,13,17,9.30
2014,04,09,13,18,9.40
2014,04,09,13,19,9.40
2014,04,09,13,20,9.50
2014,04,09,13,21,9.50
2014,04,09,13,22,9.60
2014,04,09,13,23,9.60
2014,04,09,13,24,9.60
2014,04,09,13,25,9.60
2014,04,09,13,26,9.50
2014,04,09,13,27,9.50
2014,04,09,13,28,9.60
2014,04,09,13,29,9.60
2014,04,09,13,30,9.60
2014,04,09,13,31,9.60
2014,04,09,13,32,9.60
2014,04,09,13,33,9.60
2014,04,09,13,34,9.60
2014,04,09,13,35,9.60
2014,04,09,13,36,9.70
2014,04,09,13,37,9.70
2014,04,09,13,38,9.70
2014,04,09,13,39,9.70
2014,04,09,13,40,9.70
2014,04,09,13,41,9.80
2014,04,09,13,42,9.90
2014,04,09,13,43,9.90
2014,04,09,13,44,9.90
2014,04,09,13,45,9.90
2014,04,09,13,46,9.80
2014,04,09,13,47,9.80
2014,04,09,13,48,9.70
2014,04,09,13,49,9.70
2014,04,09,13,50,9.70
2014,04,09,13,51,9.70
2014,04,09,13,52,9.70
2014,04,09,13,53,9.70
2014,04,09,13,54,9.70
2014,04,09,13,55,9.80
2014,04,09,13,56,9.80
2014,04,09,13,57,9.80
2014,04,09,13,58,9.90
2014,04,09,13,59,9.90
2014,04,09,14,00,9.80
2014,04,09,14,01,9.80
2014,04,09,14,02,9.90
2014,04,09,14,03,9.90
2014,04,09,14,04,9.90
2014,04,09,14,05,9.90
2014,04,09,14,06,9.90
2014,04,09,14,07,9.90
2014,04,09,14,08,10.00
2014,04,09,14,09,10.00
2014,04,09,14,10,10.10
2014,04,09,14,11,10.20
2014,04,09,14,12,10.30
2014,04,09,14,13,10.30
2014,04,09,14,14,10.40
2014,04,09,14,15,10.40
2014,04,09,14,16,10.40
2014,04,09,14,17,10.40
2014,04,09,14,18,10.40
2014,04,09,14,19,10.30
2014,04,09,14,20,10.30
2014,04,09,14,21,10.20
2014,04,09,14,22,10.20
2014,04,09,14,23,10.20
2014,04,09,14,24,10.30
2014,04,09,14,25,10.30
2014,04,09,14,26,10.30
2014,04,09,14,27,10.30
2014,04,09,14,28,10.40
2014,04,09,14,29,10.40
2014,04,09,14,30,10.40
2014,04,09,14,31,10.40
2014,04,09,14,32,10.40
2014,04,09,14,33,10.50
2014,04,09,14,34,10.50
2014,04,09,14,35,10.50
2014,04,09,14,36,10.50
2014,04,09,14,37,10.50
2014,04,09,14,38,10.50
2014,04,09,14,39,10.50
2014,04,09,14,40,10.60
2014,04,09,14,41,10.70
2014,04,09,14,42,10.70
2014,04,09,14,43,10.80
2014,04,09,14,44,10.80
2014,04,09,14,45,10.80
2014,04,09,14,46,10.80
2014,04,09,14,47,10.80
2014,04,09,14,48,10.90
2014,04,09,14,49,10.80
2014,04,09,14,50,10.80
2014,04,09,14,51,10.80
2014,04,09,14,52,10.70
2014,04,09,14,53,10.70
2014,04,09,14,54,10.70
2014,04,09,14,55,10.60
2014,04,09,14,56,10.60
2014,04,09,14,57,10.60
2014,04,09,14,58,10.60
2014,04,09,14,59,10.70
2014,04,09,15,00,10.80
2014,04,09,15,01,10.80
2014,04,09,15,02,10.80
2014,04,09,15,03,10.70
2014,04,09,15,04,10.70
2014,04,09,15,05,10.60
2014,04,09,15,06,10.60
2014,04,09,15,07,10.60
2014,04,09,15,08,10.60
2014,04,09,15,09,10.60
2014,04,09,15,10,10.70
2014,04,09,15,11,10.70
2014,04,09,15,12,10.60
2014,04,09,15,13,10.60
2014,04,09,15,14,10.60
2014,04,09,15,15,10.60
2014,04,09,15,16,10.60
2014,04,09,15,17,10.60
2014,04,09,15,18,10.70
2014,04,09,15,19,10.80
2014,04,09,15,20,10.80
2014,04,09,15,21,10.90
2014,04,09,15,22,10.90
2014,04,09,15,23,10.90
2014,04,09,15,24,10.90
2014,04,09,15,25,10.90
2014,04,09,15,26,10.90
2014,04,09,15,27,10.90
2014,04,09,15,28,10.90
2014,04,09,15,29,10.90
2014,04,09,15,30,11.00
2014,04,09,15,31,11.00
2014,04,09,15,32,11.00
2014,04,09,15,33,11.00
2014,04,09,15,34,11.00
2014,04,09,15,35,10.90
2014,04,09,15,36,10.90
2014,04,09,15,37,10.80
2014,04,09,15,38,10.80
2014,04,09,15,39,10.80
2014,04,09,15,40,10.80
2014,04,09,15,41,10.90
2014,04,09,15,42,11.00
2014,04,09,15,43,11.00
2014,04,09,15,44,11.00
2014,04,09,15,45,11.00
2014,04,09,15,46,11.00
2014,04,09,15,47,11.00
2014,04,09,15,48,11.00
2014,04,09,15,49,11.00
2014,04,09,15,50,11.00
2014,04,09,15,51,11.00
2014,04,09,15,52,11.00
2014,04,09,15,53,11.00
2014,04,09,15,54,10.90
2014,04,09,15,55,10.90
2014,04,09,15,56,10.80
2014,04,09,15,57,10.80
2014,04,09,15,58,10.90
2014,04,09,15,59,10.80
2014,04,09,16,00,10.90
2014,04,09,16,01,10.90
2014,04,09,16,02,10.90
2014,04,09,16,03,10.90
2014,04,09,16,04,11.00
2014,04,09,16,05,11.00
2014,04,09,16,06,11.10
2014,04,09,16,07,11.10
2014,04,09,16,08,11.10
2014,04,09,16,09,11.10
2014,04,09,16,10,11.10
2014,04,09,16,11,11.00
2014,04,09,16,12,11.00
2014,04,09,16,13,11.10
2014,04,09,16,14,11.10
2014,04,09,16,15,11.20
2014,04,09,16,16,11.20
2014,04,09,16,17,11.30
2014,04,09,16,18,11.20
2014,04,09,16,19,11.20
2014,04,09,16,20,11.20
2014,04,09,16,21,11.20
2014,04,09,16,22,11.20
2014,04,09,16,23,11.20
2014,04,09,16,24,11.20
2014,04,09,16,25,11.30
2014,04,09,16,26,11.30
2014,04,09,16,27,11.30
2014,04,09,16,28,11.30
2014,04,09,16,29,11.30
2014,04,09,16,30,11.30
2014,04,09,16,31,11.20
2014,04,09,16,32,11.20
2014,04,09,16,33,11.20
2014,04,09,16,34,11.20
2014,04,09,16,35,11.20
2014,04,09,16,36,11.20
2014,04,09,16,37,11.20
2014,04,09,16,38,11.20
2014,04,09,16,39,11.20
2014,04,09,16,40,11.20
2014,04,09,16,41,11.20
2014,04,09,16,42,11.20
2014,04,09,16,43,11.20
2014,04,09,16,44,11.20
2014,04,09,16,45,11.20
2014,04,09,16,46,11.20
2014,04,09,16,47,11.20
2014,04,09,16,48,11.20
2014,04,09,16,49,11.20
2014,04,09,16,50,11.20
2014,04,09,16,51,11.10
2014,04,09,16,52,11.10
2014,04,09,16,53,11.10
2014,04,09,16,54,11.10
2014,04,09,16,55,11.10
2014,04,09,16,56,11.00
2014,04,09,16,57,11.00
2014,04,09,16,58,11.00
2014,04,09,16,59,11.00
2014,04,09,17,00,11.00
2014,04,09,17,01,11.00
2014,04,09,17,02,11.00
2014,04,09,17,03,11.10
2014,04,09,17,04,11.10
2014,04,09,17,05,11.10
2014,04,09,17,06,11.10
2014,04,09,17,07,11.10
2014,04,09,17,08,11.10
2014,04,09,17,09,11.10
2014,04,09,17,10,11.10
2014,04,09,17,11,11.10
2014,04,09,17,12,11.10
2014,04,09,17,13,11.10
2014,04,09,17,14,11.10
2014,04,09,17,15,11.10
2014,04,09,17,16,11.10
2014,04,09,17,17,11.20
2014,04,09,17,18,11.10
2014,04,09,17,19,11.10
2014,04,09,17,20,11.10
2014,04,09,17,21,11.10
2014,04,09,17,22,11.10
2014,04,09,17,23,11.10
2014,04,09,17,24,11.10
2014,04,09,17,25,11.10
2014,04,09,17,26,11.20
2014,04,09,17,27,11.20
2014,04,09,17,28,11.20
2014,04,09,17,29,11.20
2014,04,09,17,30,11.30
2014,04,09,17,31,11.30
2014,04,09,17,32,11.30
2014,04,09,17,33,11.30
2014,04,09,17,34,11.30
2014,04,09,17,35,11.30
2014,04,09,17,36,11.30
2014,04,09,17,37,11.30
2014,04,09,17,38,11.30
2014,04,09,17,39,11.30
2014,04,09,17,40,11.30
2014,04,09,17,41,11.30
2014,04,09,17,42,11.30
2014,04,09,17,43,11.30
2014,04,09,17,44,11.30
2014,04,09,17,45,11.30
2014,04,09,17,46,11.30
2014,04,09,17,47,11.30
2014,04,09,17,48,11.30
2014,04,09,17,49,11.30
2014,04,09,17,50,11.30
2014,04,09,17,51,11.20
2014,04,09,17,52,11.20
2014,04,09,17,53,11.20
2014,04,09,17,54,11.10
2014,04,09,17,55,11.10
2014,04,09,17,56,11.10